Weather in Qingyang

China     24°49′04″N   118°34′33″E
temp.,
°C
wind,
m/s
gust,
m/s
humid.,
%
clouds,
%
prec.,
mm/h
press.,
hPa
HPBL,
m
26 october, tue
tue2623:00+20nne410660 0.0 1018792
02:00+19n396924 0.0 1017528
05:00+20n3969100 0.0 1017533
08:00+21nne386599 0.0 1019554
11:00+26ne67536 0.0 10181155
14:00+27ene775229 0.0 10151296
17:00+23ene696812 0.0 1016609
20:00+22ne5117529 0.0 1018660
27 october, wed
wed2723:00+21ne4107645 0.0 1019694
02:00+21ne497920 0.0 1018690
05:00+20nne39805 0.0 1018543
08:00+22nne486938 0.0 1020683
11:00+26ne565216 0.0 10191310
14:00+26ene775684 0.0 10161292
17:00+23ene710695 0.0 1017808
20:00+22ne6127470 0.0 1019836
28 october, thu
thu2823:00+21ne6117292 0.0 1020837
02:00+21ne51072100 0.0 1019870
05:00+21ne51071100 0.0 1019911
08:00+21ne51070100 0.0 1021920
11:00+23ne6862100 0.0 10211250
14:00+23ne686150 0.0 10191140
17:00+22ne696498 0.0 1019907
20:00+21ne51066100 0.0 1021708
29 october, fri
fri2923:00+20ne5106755 0.0 1021676
02:00+19nne38715 0.0 1020551
05:00+19nne39735 0.0 1021586
08:00+21ne59666 0.0 1022870
11:00+24ne785463 0.0 10211407
14:00+25ne675191 0.0 10191526
17:00+22ene686121 0.0 1019951
20:00+20ne6106817 0.0 1021701
30 october, sat
sat3023:00+20ne4967100 0.0 1021802
02:00+20ne4967100 0.0 1020653
05:00+20nne376781 0.0 1020598
08:00+20ne376617 0.0 1021653
11:00+24ne455088 0.0 10201299
14:00+24ene4552100 0.0 10191375
17:00+22ene5664100 0.0 1019747
20:00+21ne4768100 0.0 1021548